Regional Weather Roundup
Issued by NWS Charleston, SC

Current Version | Previous Version | Graphics & Text | Print | Product List | Glossary On
Versions: 1 2 3 4 5 6 7 8 9 10 11 12 13 14 15 16 17 18 19 20 21 22 23 24 25 26 27 28 29 30 31 32 33 34 35 36 37 38 39 40 41 42 43 44 45 46 47 48 49 50
000
ASUS42 KCHS 190512
RWRCHS

Regional Weather Roundup
National Weather Service Charleston SC
1200 AM EST FRI JAN 19 2018

NOTE: "fair" indicates few or no clouds below 12,000 feet with no
significant weather and/or obstructions to visibility.

Not all stations are quality controlled. Use data with caution,
especially dewpoint observations.

SCZ027-030-031-034>040-042>050-190600-
...Southeast South Carolina...

CITY           SKY/WX    TMP DP  RH WIND       PRES   REMARKS
N Charleston   FAIR      32  17  54 W3        30.32F
Waterfront Prk NOT AVBL
Mount Pleasant FAIR      32  25  74 CALM      30.33R
Johns Island   FAIR      30  21  69 CALM      30.33S
Pinopolis        N/A     37  25  60 SW6       30.24S WCI  33
Moncks Corner  FAIR      27  21  80 CALM      30.32S
Summerville    FAIR      28  23  80 CALM      30.33F
Beaufort MCAS  FAIR      29  23  78 SW6       30.34F WCI  23
Beaufort Arpt  FAIR      32  28  86 SW6       30.33F WCI  26
Hilton Head Is FAIR      30  23  74 W3        30.35F
Walterboro     FAIR      28  19  69 CALM      30.33F
Allendale      FAIR      28  21  74 CALM      30.32S

...Southern Midlands and Pee Dee...

CITY           SKY/WX    TMP DP  RH WIND       PRES   REMARKS
Georgetown     FAIR      28  21  74 W6        30.32S WCI  22
Kingstree      FAIR      25  21  86 CALM      30.30F
Orangeburg     FAIR      29  18  63 SW5       30.31S WCI  24
Barnwell         N/A     28  21  74 CALM      30.31F
Aiken          FAIR      30  18  59 SW6       30.33R WCI  24
Manning        FAIR      28  21  74 MISG      30.30F
Columbia       FAIR      27  23  85 S5        30.29F WCI  22
Sumter         FAIR      30  22  73 SW5       30.27S WCI  25
Florence       FAIR      27  19  72 CALM      30.29S
Myrtle Beach   FAIR      31  19  61 CALM      30.31R
N Myrtle Beach FAIR      30  19  63 SW3       30.29S

$$

GAZ063-065-086>088-099>101-113>116-118-119-134>141-150-190600-
...Southeast Georgia...

CITY           SKY/WX    TMP DP  RH WIND       PRES   REMARKS
Savannah Arpt  FAIR      31  18  58 W3        30.36S
Hunter AAF     FAIR      29  19  63 CALM      30.32F
Fort Stewart   FAIR      28  21  75 CALM      30.33F
Statesboro     FAIR      28  21  74 CALM      30.34S
Sylvania       FAIR      30  23  74 CALM      30.34S
Claxton        FAIR      28  25  87 CALM      30.35F

...CSRA, Central and far Southeast Georgia...

CITY           SKY/WX    TMP DP  RH WIND       PRES   REMARKS
Thomson        FAIR      27  17  65 NW3       30.36S
Augusta-Bush   FAIR      27  19  72 S3        30.32S
Augusta-Daniel FAIR      35  14  42 CALM      30.31S
Swainsboro     FAIR      28  23  80 CALM      30.34F
Vidalia        FAIR      32  27  80 SW3       30.34F
Eastman        FAIR      27  19  71 CALM      30.37F
Hazlehurst     FAIR      30  21  68 CALM      30.34F
Alma           FAIR      26  23  88 CALM      30.35F
Waycross       FAIR      28  21  72 CALM      30.35F
Jesup          NOT AVBL
Baxley         FAIR      28  23  80 CALM      30.35F
Brunswick      FAIR      28  23  80 CALM      30.36F
Saint Simons   FAIR      32  24  72 CALM      30.35F

$$

SCZ027-028-034-036>038-045-046-048>050-GAZ119-141-190600-
...Lake and Supplemental Coastal Observations...

STATION/POSITION TIME  TEMP    WIND        PRES    WAVE   SWELL
                       AIR SEA DIR/SP/G            HT/PER HT/PER/DIR
                 (UTC) (F)     (DEG/KT/KT) (MB)    (FT/S) (FT/S/D)
Winyah Bay       NOT AVBL
Lake Murray      0420   39     290/  2/  4 1024.7
ACE Basin NERRS  0345   30        CALM     1027.0
Fort Pulaski     0442   39 45  240/  3/  4 1027.7F
Sapelo Island    0400   36     250/  2     1028.0

$$

ANZ835-935-AMZ111-154-330-350-352-354-370-450-454-472-190600-
...C-MAN and Buoy Observations...

STATION/POSITION TIME  TEMP    WIND        PRES    WAVE   SWELL
                       AIR SEA DIR/SP/G            HT/PER HT/PER/DIR
                 (UTC) (F)     (DEG/KT/KT) (MB)    (FT/S) (FT/S/D)
Buoy 41004       0450   49 69  280/ 12/ 17 1026.5S   3/ 4   2/110/11
Buoy 41008       0450   46 51  280/ 10/ 12 1027.4F   2/12   2/ 60/12
Folly Beach CMAN 0500   37     240/  4/  6 1027.2F
Capers Nearshore 0408   39 48  270/  8/ 10 1026.5R
Fripp Nearshore  0408   41 47  270/  6/  8 1026.6F


STATION/POSITION TIME  TEMP    WIND        PRES    WAVE   SWELL
                       AIR SEA DIR/SP/G            HT/PER HT/PER/DIR
                 (UTC) (F)     (DEG/KT/KT) (MB)    (FT/S) (FT/S/D)
5E St. Marys GA  0500      49                N/A     2/12   2/120/12
Frying Pan Buoy  0450   47 64  300/ 16/ 19 1025.4R   4/11   3/ 90/11
Buoy 41025       0500   41     300/ 19/ 23 1023.4
Cape Lookout NC  0400          280/ 18/ 20 1024.4R
Buoy 41002       0450   55 70  320/ 12/ 16 1024.0F  10/11  10/ 20/11
Buoy 41010       NOT AVBL
St Augustine FL  0500   39 49  260/  4/  4 1028.3F


$$



USA.gov is the U.S. government's official web portal to all federal, state and local government web resources and services.